Location: Sobotiste
(48.7170°N, 17.4000°E)
Time: 01:06:58
(UTC+01:00)

UNISAT 6 - Visible Passes

Search period start: 14 March 2026 00:00
Search period end: 24 March 2026 00:00
Orbit: 573 x 637 km, 97.8° (Epoch: 13 March)

Date Brightness Start Highest point End Pass type
(mag) Time Alt. Az. Time Alt. Az. Time Alt. Az.
14 Mar ? 02:22:24 12° N 02:22:24 12° N 02:22:46 10° N visible
15 Mar ? 02:35:00 14° N 02:35:00 14° N 02:35:35 10° N visible
16 Mar ? 02:47:35 15° N 02:47:35 15° N 02:48:20 10° N visible
17 Mar ? 03:00:10 16° NNW 03:00:10 16° NNW 03:01:03 10° NNW visible
18 Mar ? 01:35:54 12° NNE 01:35:54 12° NNE 01:36:33 10° NNE visible
18 Mar ? 03:12:44 17° NNW 03:12:44 17° NNW 03:13:42 10° NNW visible
19 Mar ? 01:48:27 15° NNE 01:48:27 15° NNE 01:49:40 10° NNE visible
19 Mar ? 03:25:18 17° NNW 03:25:18 17° NNW 03:26:18 10° NNW visible
20 Mar ? 02:01:01 18° NNE 02:01:01 18° NNE 02:02:39 10° N visible
20 Mar ? 03:37:51 16° NW 03:37:51 16° NW 03:38:49 10° NNW visible
21 Mar ? 02:13:33 22° NNE 02:13:33 22° NNE 02:15:31 10° N visible
21 Mar ? 03:50:23 15° NW 03:50:23 15° NW 03:51:15 10° NW visible
22 Mar ? 02:26:05 27° NNE 02:26:05 27° NNE 02:28:18 10° N visible
22 Mar ? 04:02:55 13° NW 04:02:55 13° NW 04:03:36 10° NW visible
23 Mar ? 02:38:37 32° N 02:38:37 32° N 02:41:03 10° N visible
23 Mar ? 04:15:27 11° NW 04:15:27 11° NW 04:15:46 10° NW visible
